Preview of NWS' New Version of Forecast
This preview is not operational and should not be used for support decisions.

Regional Weather Roundup (RWR)

Issued by Gray - Portland, ME (GYX)

                            
508 
ASUS41 KGYX 261510
RWRGYX
WEATHER ROUNDUP FOR MAINE AND NEW HAMPSHIRE
NATIONAL WEATHER SERVICE GRAY ME
1100 AM EDT TUE MAR 26 2019

MEZ002-005-006-010-012-015-018-020-021-024-026-027-029-261600-
MAINE
  
CITY           SKY/WX    TMP DP  RH WIND       PRES   REMARKS
PORTLAND       FAIR      34   5  29 N12       30.27S                  
SANFORD        FAIR      34  -1  22 NW7       30.26S                  
BAR HARBOR     FAIR      29   4  34 NW13      30.23R WCI  19          
WISCASSET      FAIR      33   3  28 VRB3G17   30.26F                  
ROCKLAND       FAIR      32   4  30 NW14G24   30.24S                  
FRYEBURG       FAIR      30   3  31 S3        30.25S                  
LEWISTONAUBURN FAIR      29   7  39 N13       30.26S WCI  19          
AUGUSTA          N/A     30   0  27 MISG      30.25S                  
WATERVILLE     FAIR      27   6  41 W9        30.22S                  
BANGOR         FAIR      28   3  34 NW9       30.24R                  
GREENVILLE       N/A     19  -1  41 NW10      30.13R WCI   7          
MILLINOCKET    FAIR      22   1  40 NW8G17    30.22S                  
HOULTON        FAIR      20   3  48 N13       30.17S WCI   7          
PRESQUE ISLE   FAIR      17  -2  43 W8        30.18R                  
FRENCHVILLE    FAIR      15  -4  42 W14       30.09F WCI   0          
CARIBOU        FAIR      17  -3  41 NW8       30.15S                  
$$

NHZ002-005-008-009-011-012-014-261600-
NEW HAMPSHIRE
  
CITY           SKY/WX    TMP DP  RH WIND       PRES   REMARKS
PORTSMOUTH     SUNNY     37   1  21 NW10      30.25S                  
ROCHESTER      FAIR      35   2  24 NW10      30.25R                  
NASHUA         FAIR      35   0  22 NW14G22   30.28S                  
MANCHESTER     FAIR      35  -1  21 N10G18    30.26S                  
CONCORD        FAIR      34   4  28 NW10      30.27S                  
LACONIA        FAIR      31   7  36 N12       30.26R                  
PLYMOUTH       FAIR      29   4  34 W12       30.28R WCI  19          
BERLIN         FAIR      25   3  38 NW10      30.23R WCI  15          
WHITEFIELD     FAIR      27   2  34 VRB3      30.26R                  
JAFFREY        FAIR      33   2  26 MISG      30.23S                  
KEENE          FAIR      33   3  28 N16       30.28R                  
LEBANON        FAIR      32   4  30 NW14G20   30.28R                  
MT WASHINGTON  MOSUNNY   -4  -8  84 NW45G55     N/A  WCI -36          
$$

VTZ005-007-008-261600-
VERMONT
  
CITY           SKY/WX    TMP DP  RH WIND       PRES   REMARKS
ST JOHNSBURY     N/A     25   5  42 MISG      30.28R                  
MONTPELIER     FAIR      22   4  46 NW9       30.31R                  
BURLINGTON     FAIR      26   6  42 N9        30.36R                  
$$

MAZ007-012-024-CTZ003-RIZ002-NYZ038-NYZ072-261600-
SOUTHERN NEW ENGLAND AND NY
  
CITY           SKY/WX    TMP DP  RH WIND       PRES   REMARKS
BOSTON         FAIR      40  -2  17 NW10      30.27R                  
WORCESTER      FAIR      33   1  25 NE10G22   30.22R                  
NANTUCKET      FAIR      41  15  35 NE20G29   30.21R                  
PROVIDENCE     FAIR      41   3  20 N20       30.26R                  
HARTFORD       FAIR      40   2  20 NE15      30.28R                  
ALBANY         FAIR      35   4  27 VRB3      30.35R                  
NEW YORK CITY  FAIR      41   2  19 N10G20    30.29R                  
$$

ANZ081-ANZ082-ANZ150-NHZ014-MEZ023>029-261600-
COASTAL MARINE OBSERVATIONS
  
STATION/POSITION TIME  TEMP    WIND        PRES    WAVE
                       AIR SEA DIR/SP/G            HT/PER
                 (UTC) (F)     (DEG/KT/KT) (MB)    (FT/S)
MOUNT DESERT ROC 1500   29     300/ 16/ 18 1023.3S
MATINICUS ROCK   1400   29     360/ 14/ 16 1023.4R
ISLE OF SHOALS   1400   32      10/ 11/ 14 1024.4R
CASHES LEDGE BUO 1450   35 39              1024.1R   3/ 4
$$

.............KEY..............
   WCI - WIND CHILL
   TC  - TEMPERATURE IN CELSIUS
   VSB - VISIBILITY IN MILES
   HX  - HEAT INDEX
   FAIR- INDICATES FEW OR NO CLOUDS BELOW 12,000 FT, WITH NO 
         SIGNIFICANT WEATHER AND/OR OBSTRUCTIONS TO VISIBILITY.